AirNav   Jet Aviation Boston
 
 331 users online  

C00 Mercer County Airport
Aledo, Illinois, USA

GOING TO ALEDO?


FAA INFORMATION EFFECTIVE 24 MAY 2018

Location

FAA Identifier: C00
Lat/Long: 41-14-55.1220N / 090-44-13.5010W
41-14.918700N / 090-44.225017W
41.2486450 / -90.7370836
(estimated)
Elevation: 740 ft. / 225.6 m (surveyed)
Variation: 02E (1985)
From city: 3 miles NE of ALEDO, IL
Time zone: UTC -5 (UTC -6 during Standard Time)
Zip code: 61231

Airport Operations

Airport use: Open to the public
Activation date: 07/1957
Control tower: no
ARTCC: CHICAGO CENTER
FSS: KANKAKEE FLIGHT SERVICE STATION
NOTAMs facility: IKK (NOTAM-D service available)
Attendance: 0800-1700
Pattern altitude: 1540 ft. MSL
Wind indicator: yes
Segmented circle: no
Lights: SS-SR

Airport Communications

CTAF: 122.9
WX ASOS at MLI (16 nm NE): PHONE 309-799-7096
WX AWOS-3 at MUT (20 nm W): 119.775 (563-263-0902)

Nearby radio navigation aids

VOR radial/distance  VOR name  Freq  Var
MZVr221/6.2MOLINE VOR/DME114.4005E
GBGr321/23.2GALESBURG VOR/DME109.8003E
CVAr198/29.9DAVENPORT VORTAC113.8004E
BRLr010/32.7BURLINGTON VOR/DME111.4005E

 
NDB name  Hdg/Dist  Freq  Var  ID
MOUNT PLEASANT063/39.521200WMPZ -- .--. --..

Airport Services

Fuel available: A
Parking: hangars and tiedowns
Bottled oxygen: NONE
Bulk oxygen: NONE

Runway Information

Runway 17/35

Dimensions: 2480 x 45 ft. / 756 x 14 m
Surface: asphalt, in good condition
Runway edge lights: low intensity
Gradient: N
RUNWAY 17  RUNWAY 35
Latitude: 41-15.125667N41-14.718667N
Longitude: 090-44.255833W090-44.208333W
Elevation: 742.0 ft.719.0 ft.
Gradient: 0.8%0.9% UP
Traffic pattern: leftleft
Markings: basic, in good conditionbasic, in good condition
Runway end identifier lights: nono
Obstructions: 35 ft. tree, 363 ft. from runway, 58 ft. right of centerline, 4:1 slope to clear
29 FT TREE 100 FT FROM EOR 17 AT 98 FT R.
none
FARM DRIVEWAY +15 ABOVE RWY 70 FT FROM EOR 35 AT 110 FT L

Airport Ownership and Management from official FAA records

Ownership: Privately-owned
Owner: GARRETT LINDELL
1276 HWY 94
ALEDO, IL 61231
Phone (309) 582-5445
GARRETT LINDELL OF ABL, LLC
Manager: GARRETT LINDELL
1276 HWY 94
ALEDO, IL 61231
Phone (309) 582-5445

Airport Operational Statistics

Aircraft based on the field: 5
Single engine airplanes: 5
    
Aircraft operations: avg 77/week *
82% local general aviation
18% transient general aviation
* for 12-month period ending 30 June 2017

Instrument Procedures

There are no published instrument procedures at C00.

Some nearby airports with instrument procedures:

KMLI - Quad City International Airport (16 nm NE)
C66 - Monmouth Municipal Airport (20 nm S)
KMUT - Muscatine Municipal Airport (20 nm W)
KDVN - Davenport Municipal Airport (23 nm N)
KGBG - Galesburg Municipal Airport (23 nm SE)
 
Loc | Ops | Rwys | IFR | FBO | Links
Com | Nav | Svcs | Stats | Notes

AirNav Hotels Sweepstakes
 
Area around C00 (Mercer County Airport)
 
Road maps at: MapQuest Bing Google
 
Aerial photo
No photo
 
Sectional chart

 
Airport distance calculator
Flying to Mercer County Airport? Find the distance to fly.

From to C00

Sunrise and sunset
Times for 18-Jun-2018
 Local
(UTC-5)
 Zulu
(UTC)
Morning civil twilight04:5709:57
Sunrise05:3110:31
Sunset20:3801:38
Evening civil twilight21:1102:11

Current date and time
Zulu (UTC)  18-Jun-2018 08:21:56
Local (UTC-5)  18-Jun-2018 03:21:56
 
METAR
KMLI 
16nm NE 
180752Z 21010KT 10SM CLR 27/22 A2992 RMK AO2 SLP127 T02720222
KMUT 
20nm W 
180735Z AUTO RMK AO2 PWINO
KDVN 
23nm N 
180752Z AUTO 22010KT 10SM CLR 27/22 A2995 RMK AO2 SLP131 T02670217
KGBG 
23nm SE 
180755Z AUTO 24008KT 110V260 10SM CLR 25/22 A2997 RMK AO2 T02500215
TAF
KMLI 
16nm NE 
180520Z 1806/1906 20008KT P6SM SCT250 FM181500 24010KT P6SM SCT050 FM190100 20005KT P6SM BKN060
NOTAMs
Click for the latest NOTAMs
NOTAMs are issued by the DoD/FAA and will open in a separate window not controlled by AirNav.

 

 
 

Would you like to see your business listed on this page?

 If your business provides an interesting product or service to pilots, flight crews, aircraft, or users of the Mercer County Airport, you should consider listing it here.  To start the listing process, click on the button below
 
Add a business
 

Other Pages about Mercer County Airport

Update a link
 
Copyright © AirNav, LLC. All rights reserved. Privacy Policy  Contact